WESTERN HEAD, Nova Scotia

3:16 PM AST on December 03, 2016 (GMT -0400)
Western Head

Weather History for CWWE - September, 2013

Change the Weather History Date:

Thursday, September 19, 2013

  Actual Average Record
Temperature  
Mean Temperature 60 °F -  
Max Temperature 77 °F - - ()
Min Temperature 42 °F - - ()
Degree Days  
Heating Degree Days 6    
Growing Degree Days 10 (Base 50)    
Moisture  
Dew Point 48 °F    
Average Humidity 72    
Maximum Humidity 96    
Minimum Humidity 32    
Precipitation  
Precipitation 0.00 in - - ()
Sea Level Pressure  
Sea Level Pressure 30.02 in    
Wind  
Wind Speed 6 mph ()    
Max Wind Speed 12 mph    
Max Gust Speed 20 mph    
T = Trace of Precipitation, MM = Missing Value Source: Averaged Metar Reports

Daily Weather History Graph

Daily Weather History Graph

Search for Another Location

Airport or City:

Trip Planner

Search our weather history database for the weather conditions in past years. The results will help you decide how hot, cold, wet, or windy it might be!

Date:

Astronomy

Sep. 19, 2013 Rise Set
Actual Time 7:02 AM ADT 7:21 PM ADT
Civil Twilight 6:33 AM ADT 7:50 PM ADT
Nautical Twilight 5:59 AM ADT 8:23 PM ADT
Astronomical Twilight 5:24 AM ADT 8:58 PM ADT
Moon 7:14 PM ADT (9/19) 7:08 AM ADT (9/19)
Length of Visible Light 13h 16m
Length of Day
12h 18m
Full, 100% of the Moon is Illuminated
Sep 19
Full
Sep 27
Last Quarter
Oct 4
New
Oct 11
First Quarter
Oct 18
Full

Hourly Weather History & Observations

Time (ADT) Temp. Windchill Dew Point Humidity Pressure Visibility Wind Dir Wind Speed Gust Speed Precip Events Conditions
12:00 AM 45.5 °F 41.8 °F 43.0 °F 91% 30.06 in - WSW 6.9 mph - N/A   Unknown
1:00 AM 44.4 °F 42.0 °F 43.0 °F 95% 30.06 in - SW 4.6 mph - N/A   Unknown
2:00 AM 42.6 °F 39.9 °F 41.5 °F 96% 30.06 in - WSW 4.6 mph - N/A   Unknown
3:00 AM 48 °F - 46 °F 92% 30.05 in - SW 6.9 mph - -  
3:00 AM 48.0 °F - 46.4 °F 94% 30.05 in - SW 6.9 mph - N/A   Unknown
4:00 AM 44.1 °F 40.8 °F 43.0 °F 96% 30.04 in - WSW 5.8 mph - N/A   Unknown
5:00 AM 47.7 °F - 45.9 °F 93% 30.03 in - West 4.6 mph - N/A   Unknown
6:00 AM 47 °F - 46 °F 92% 30.03 in - WNW 4.6 mph - -  
6:00 AM 47.3 °F - 45.5 °F 93% 30.03 in - WNW 4.6 mph - N/A   Unknown
7:00 AM 50.5 °F - 47.8 °F 90% 30.04 in - WNW 10.4 mph - N/A   Unknown
8:00 AM 53.1 °F - 48.6 °F 85% 30.04 in - WNW 11.5 mph - N/A   Unknown
9:00 AM 59 °F - 50 °F 63% 30.02 in - WNW 8.1 mph - -  
9:00 AM 59.0 °F - 49.8 °F 72% 30.02 in - WNW 8.1 mph - N/A   Unknown
10:00 AM 64.2 °F - 48.7 °F 57% 30.04 in - NW 4.6 mph - N/A   Unknown
11:00 AM 61.7 °F - 49.8 °F 65% 30.04 in - SSE 3.5 mph - N/A   Unknown
12:00 PM 60 °F - 51 °F 65% 30.03 in - South 4.6 mph - -  
12:00 PM 59.5 °F - 51.3 °F 74% 30.03 in - South 4.6 mph - N/A   Unknown
1:00 PM 61.2 °F - 50.7 °F 69% 30.02 in - South 3.5 mph - N/A   Unknown
2:00 PM 62.8 °F - 52.3 °F 69% 29.99 in - South 3.5 mph - N/A   Unknown
3:00 PM 64 °F - 52 °F 56% 29.98 in - SSE 3.5 mph - -  
3:00 PM 64.0 °F - 52.0 °F 65% 29.98 in - SSE 3.5 mph - N/A   Unknown
4:00 PM 77.4 °F - 51.1 °F 40% 29.97 in - NW 9.2 mph - N/A   Unknown
5:00 PM 75.9 °F - 46.4 °F 35% 29.97 in - WNW 11.5 mph 19.6 mph N/A   Unknown
6:00 PM 73 °F - 49 °F 32% 29.97 in - WNW 8.1 mph - -  
6:00 PM 73.2 °F - 49.1 °F 42% 29.97 in - WNW 8.1 mph - N/A   Unknown
7:00 PM 65.5 °F - 47.7 °F 53% 29.98 in - West 6.9 mph - N/A   Unknown
8:00 PM 58.3 °F - 47.8 °F 68% 29.99 in - WNW 6.9 mph - N/A   Unknown
9:00 PM 57 °F - 47 °F 60% 30.01 in - WNW 8.1 mph - -  
9:00 PM 56.8 °F - 46.9 °F 69% 30.01 in - WNW 8.1 mph - N/A   Unknown
10:00 PM 50.7 °F - 46.2 °F 85% 30.02 in - WSW 6.9 mph - N/A   Unknown
11:00 PM 55.9 °F - 46.6 °F 71% 30.02 in - WNW 10.4 mph - N/A   Unknown